TimeCDT,TemperatureF,Dew PointF,Humidity,Sea Level PressureIn,VisibilityMPH,Wind Direction,Wind SpeedMPH,Gust SpeedMPH,PrecipitationIn,Events,Conditions,WindDirDegrees,DateUTC
12:15 AM,64.4,60.8,88,29.88,10.0,SW,4.6,-,N/A,,Mostly Cloudy,220,2013-05-30 05:15:00
12:35 AM,64.4,60.8,88,29.88,10.0,South,3.5,-,N/A,,Partly Cloudy,180,2013-05-30 05:35:00
12:55 AM,64.4,60.8,88,29.87,10.0,South,4.6,-,N/A,,Clear,180,2013-05-30 05:55:00
1:15 AM,64.4,60.8,88,29.87,10.0,SSW,5.8,-,N/A,,Clear,200,2013-05-30 06:15:00
1:35 AM,64.4,60.8,88,29.87,10.0,SSW,5.8,-,N/A,,Partly Cloudy,210,2013-05-30 06:35:00
1:55 AM,64.4,60.8,88,29.87,10.0,South,9.2,-,N/A,,Scattered Clouds,190,2013-05-30 06:55:00
2:15 AM,62.6,60.8,94,29.86,10.0,South,6.9,-,N/A,,Mostly Cloudy,180,2013-05-30 07:15:00
2:35 AM,64.4,60.8,88,29.86,9.0,SSW,5.8,-,N/A,,Mostly Cloudy,210,2013-05-30 07:35:00
2:55 AM,62.6,60.8,94,29.85,7.0,SSW,3.5,-,N/A,,Mostly Cloudy,200,2013-05-30 07:55:00
3:15 AM,66.2,62.6,88,29.87,6.0,SSW,8.1,-,N/A,,Partly Cloudy,210,2013-05-30 08:15:00
3:35 AM,66.2,62.6,88,29.86,6.0,SSW,8.1,-,N/A,,Scattered Clouds,210,2013-05-30 08:35:00
3:55 AM,64.4,62.6,94,29.84,7.0,South,5.8,-,N/A,,Mostly Cloudy,190,2013-05-30 08:55:00
4:15 AM,64.4,62.6,94,29.84,7.0,SSW,6.9,-,N/A,,Mostly Cloudy,200,2013-05-30 09:15:00
4:35 AM,64.4,62.6,94,29.85,8.0,WSW,3.5,-,N/A,,Mostly Cloudy,250,2013-05-30 09:35:00
4:55 AM,64.4,60.8,88,29.86,7.0,SSW,3.5,-,N/A,,Partly Cloudy,210,2013-05-30 09:55:00
5:15 AM,66.2,60.8,83,29.85,8.0,South,4.6,-,N/A,,Clear,180,2013-05-30 10:15:00
5:35 AM,60.8,60.8,100,29.85,4.0,SSE,5.8,-,N/A,,Clear,150,2013-05-30 10:35:00
5:55 AM,66.2,60.8,83,29.85,4.0,South,5.8,-,N/A,,Clear,170,2013-05-30 10:55:00
6:15 AM,62.6,60.8,94,29.85,5.0,South,6.9,-,N/A,,Clear,170,2013-05-30 11:15:00
6:35 AM,62.6,60.8,94,29.85,7.0,SSE,4.6,-,N/A,,Clear,160,2013-05-30 11:35:00
6:55 AM,64.4,60.8,88,29.85,10.0,South,5.8,-,N/A,,Clear,170,2013-05-30 11:55:00
7:15 AM,66.2,60.8,83,29.86,10.0,South,6.9,-,N/A,,Clear,190,2013-05-30 12:15:00
7:35 AM,66.2,60.8,83,29.86,10.0,South,5.8,-,N/A,,Clear,170,2013-05-30 12:35:00
7:55 AM,68.0,62.6,83,29.86,10.0,South,6.9,-,N/A,,Clear,180,2013-05-30 12:55:00
8:15 AM,69.8,62.6,78,29.86,10.0,South,6.9,-,N/A,,Clear,180,2013-05-30 13:15:00
8:35 AM,71.6,64.4,78,29.85,10.0,South,6.9,-,N/A,,Clear,170,2013-05-30 13:35:00
8:55 AM,73.4,64.4,73,29.86,9.0,South,10.4,-,N/A,,Clear,190,2013-05-30 13:55:00
9:15 AM,75.2,64.4,69,29.86,9.0,SSW,12.7,-,N/A,,Clear,200,2013-05-30 14:15:00
9:35 AM,75.2,64.4,69,29.85,10.0,SW,13.8,21.9,N/A,,Clear,220,2013-05-30 14:35:00
9:55 AM,75.2,66.2,73,29.85,10.0,South,12.7,19.6,N/A,,Clear,190,2013-05-30 14:55:00
10:15 AM,77.0,66.2,69,29.84,10.0,SSW,12.7,19.6,N/A,,Clear,200,2013-05-30 15:15:00
10:35 AM,78.8,66.2,65,29.83,9.0,SW,10.4,16.1,N/A,,Clear,230,2013-05-30 15:35:00
10:55 AM,78.8,66.2,65,29.84,9.0,SSE,9.2,-,N/A,,Clear,160,2013-05-30 15:55:00
11:15 AM,75.2,64.4,69,29.83,9.0,SSE,15.0,19.6,N/A,,Clear,150,2013-05-30 16:15:00
11:35 AM,73.4,62.6,69,29.84,10.0,SSE,13.8,18.4,N/A,,Clear,160,2013-05-30 16:35:00
11:55 AM,73.4,62.6,69,29.84,10.0,SSE,15.0,-,N/A,,Clear,160,2013-05-30 16:55:00
12:15 PM,73.4,62.6,69,29.84,10.0,South,13.8,-,N/A,,Clear,170,2013-05-30 17:15:00
12:35 PM,75.2,64.4,69,29.84,10.0,SSE,13.8,17.3,N/A,,Clear,150,2013-05-30 17:35:00
12:55 PM,75.2,64.4,69,29.83,10.0,South,13.8,-,N/A,,Clear,170,2013-05-30 17:55:00
1:15 PM,75.2,64.4,69,29.83,10.0,SSE,11.5,20.7,N/A,,Mostly Cloudy,160,2013-05-30 18:15:00
1:35 PM,77.0,64.4,65,29.81,10.0,SSE,13.8,-,N/A,,Partly Cloudy,150,2013-05-30 18:35:00
1:55 PM,77.0,66.2,69,29.81,9.0,South,16.1,-,N/A,,Clear,170,2013-05-30 18:55:00
2:15 PM,77.0,64.4,65,29.80,10.0,South,19.6,24.2,N/A,,Clear,170,2013-05-30 19:15:00
2:35 PM,75.2,64.4,69,29.79,10.0,South,16.1,24.2,N/A,,Scattered Clouds,170,2013-05-30 19:35:00
2:55 PM,75.2,64.4,69,29.79,9.0,South,12.7,-,N/A,,Partly Cloudy,170,2013-05-30 19:55:00
3:15 PM,75.2,64.4,69,29.78,9.0,SSE,15.0,21.9,N/A,,Clear,160,2013-05-30 20:15:00
3:35 PM,75.2,64.4,69,29.77,10.0,South,18.4,26.5,N/A,,Partly Cloudy,170,2013-05-30 20:35:00
3:55 PM,75.2,64.4,69,29.76,10.0,SSE,19.6,24.2,N/A,,Partly Cloudy,160,2013-05-30 20:55:00
4:15 PM,77.0,64.4,65,29.76,10.0,South,10.4,27.6,N/A,,Clear,170,2013-05-30 21:15:00
4:35 PM,75.2,64.4,69,29.76,10.0,South,15.0,23.0,N/A,,Clear,180,2013-05-30 21:35:00
4:55 PM,75.2,64.4,69,29.76,9.0,South,13.8,21.9,N/A,,Mostly Cloudy,180,2013-05-30 21:55:00
5:15 PM,73.4,66.2,78,29.76,10.0,South,11.5,16.1,N/A,,Mostly Cloudy,170,2013-05-30 22:15:00
5:35 PM,73.4,66.2,78,29.76,9.0,South,10.4,-,N/A,,Partly Cloudy,170,2013-05-30 22:35:00
5:55 PM,75.2,64.4,69,29.76,9.0,South,11.5,17.3,N/A,,Clear,180,2013-05-30 22:55:00
6:15 PM,71.6,64.4,78,29.76,10.0,SSE,11.5,-,N/A,,Clear,150,2013-05-30 23:15:00
6:35 PM,71.6,62.6,73,29.76,10.0,South,9.2,-,N/A,,Clear,170,2013-05-30 23:35:00
6:55 PM,71.6,62.6,73,29.77,10.0,SSE,6.9,-,N/A,,Clear,160,2013-05-30 23:55:00
7:15 PM,69.8,62.6,78,29.75,10.0,South,6.9,-,N/A,,Clear,170,2013-05-31 00:15:00
7:35 PM,69.8,62.6,78,29.76,10.0,South,10.4,16.1,N/A,,Clear,180,2013-05-31 00:35:00
7:55 PM,69.8,62.6,78,29.77,10.0,South,8.1,-,N/A,,Clear,170,2013-05-31 00:55:00
8:15 PM,69.8,62.6,78,29.77,10.0,SSE,9.2,-,N/A,,Scattered Clouds,160,2013-05-31 01:15:00
8:35 PM,66.2,60.8,83,29.78,10.0,SSE,9.2,-,N/A,,Partly Cloudy,160,2013-05-31 01:35:00
8:55 PM,66.2,60.8,83,29.78,10.0,SSE,10.4,-,N/A,,Mostly Cloudy,160,2013-05-31 01:55:00
9:15 PM,64.4,60.8,88,29.78,10.0,South,11.5,16.1,N/A,,Mostly Cloudy,170,2013-05-31 02:15:00
9:35 PM,64.4,60.8,88,29.78,10.0,South,6.9,-,N/A,,Mostly Cloudy,180,2013-05-31 02:35:00
9:55 PM,66.2,60.8,83,29.78,10.0,South,8.1,-,N/A,,Partly Cloudy,170,2013-05-31 02:55:00
10:15 PM,66.2,60.8,83,29.79,10.0,South,11.5,-,N/A,,Clear,180,2013-05-31 03:15:00
10:35 PM,66.2,62.6,88,29.79,10.0,South,9.2,-,N/A,,Clear,170,2013-05-31 03:35:00
10:55 PM,66.2,60.8,83,29.78,10.0,South,10.4,-,N/A,,Mostly Cloudy,180,2013-05-31 03:55:00
11:15 PM,66.2,60.8,83,29.78,10.0,South,6.9,-,N/A,,Scattered Clouds,180,2013-05-31 04:15:00
11:35 PM,68.0,64.4,88,29.76,9.0,South,10.4,16.1,0.01,,Mostly Cloudy,190,2013-05-31 04:35:00
11:55 PM,62.6,60.8,94,29.77,10.0,SSE,9.2,-,0.01,,Scattered Clouds,150,2013-05-31 04:55:00